Location: London
(51.5074°N, 0.1278°W)
Time: 07:32:53
(UTC+00:00)

TIGRISAT - Pass Details

Date: 05 October 2020
Orbit: 606 x 688 km, 97.7° (Epoch: 30 October)

Event Time Altitude Azimuth Distance (km) Brightness Sun altitude
Rises 19:58:20 0° 25° (NNE) 3,000 ? -14.8°
Reaches altitude 10° 20:01:08 10° 43° (NE) 2,097 ? -15.2°
Enters shadow 20:02:08 14° 54° (NE) 1,845 ? -15.4°
